Weather History for Kahului, HI

Change the Weather History Date:

Tuesday, November 5, 2013

  Actual Average Record
Temperature  
Mean Temperature 79 °F 77 °F  
Max Temperature 86 °F 85 °F 92 °F (1952)
Min Temperature 71 °F 69 °F 60 °F (1971)
Degree Days  
Heating Degree Days 0 0  
Month to date heating degree days 0 0  
Since 1 July heating degree days 0 0  
Cooling Degree Days 14 12  
Month to date cooling degree days 71 60  
Year to date cooling degree days 3724 3436  
Growing Degree Days 28 (Base 50)    
Moisture  
Dew Point 68 °F    
Average Humidity 69    
Maximum Humidity 87    
Minimum Humidity 51    
Precipitation  
Precipitation 0.01 in 0.06 in 0.63 in (1964)
Month to date precipitation 0.10 0.27  
Year to date precipitation 9.05 12.55  
Snow  
Snow 0.00 in - - ()
Month to date snowfall 0.0  
Since 1 July snowfall 0.0  
Since 1 September snowfall 0.0  
Snow Depth 0.00 in    
Sea Level Pressure  
Sea Level Pressure 29.99 in    
Wind  
Wind Speed 10 mph (NNE)    
Max Wind Speed 25 mph    
Max Gust Speed 30 mph    
Visibility 10 miles    
Events      
T = Trace of Precipitation, MM = Missing Value Source: NWS Daily Summary

Daily Weather History Graph

Daily Weather History Graph

Search for Another Location

Airport:

Trip Planner

Search our weather history database for the weather conditions in past years. The results will help you decide how hot, cold, wet, or windy it might be!

Date:

Astronomy

Nov. 05, 2013 Rise Set
Actual Time 6:30 AM HST 5:47 PM HST
Civil Twilight 6:07 AM HST 6:10 PM HST
Nautical Twilight 5:41 AM HST 6:37 PM HST
Astronomical Twilight 5:14 AM HST 7:03 PM HST
Moon 8:46 AM HST (11/5) 8:10 PM HST (11/5)
Length of Visible Light 12h 03m
Length of Day
11h 17m
Waxing Crescent, 8% of the Moon is Illuminated
Nov 5
Waxing Crescent
Nov 9
First Quarter
Nov 17
Full
Nov 25
Last Quarter
Dec 2
New

Hourly Weather History & Observations

Time (HST) Temp. Heat Index Dew Point Humidity Pressure Visibility Wind Dir Wind Speed Gust Speed Precip Events Conditions
12:54 AM 75.0 °F - 66.9 °F 76% 30.01 in 10.0 mi North 12.7 mph - N/A   Mostly Cloudy
1:54 AM 75.0 °F - 66.9 °F 76% 30.00 in 10.0 mi North 8.1 mph - N/A   Scattered Clouds
2:54 AM 72.0 °F - 66.0 °F 81% 29.99 in 10.0 mi NNE 5.8 mph - N/A   Clear
3:54 AM 73.9 °F - 68.0 °F 82% 29.99 in 10.0 mi NNE 5.8 mph - N/A   Clear
4:54 AM 72.0 °F - 66.9 °F 84% 29.98 in 10.0 mi ENE 5.8 mph - N/A   Mostly Cloudy
5:54 AM 73.0 °F - 70.0 °F 90% 29.99 in 8.0 mi NNE 6.9 mph - N/A   Overcast
6:54 AM 73.0 °F - 70.0 °F 90% 30.00 in 10.0 mi North 9.2 mph - N/A   Partly Cloudy
7:38 AM 73.4 °F - 71.6 °F 94% 30.00 in 10.0 mi NE 12.7 mph - N/A   Mostly Cloudy
7:54 AM 73.9 °F - 70.0 °F 87% 30.02 in 10.0 mi NE 16.1 mph - N/A   Overcast
8:25 AM 73.4 °F - 69.8 °F 88% 30.01 in 10.0 mi North 10.4 mph - 0.01 in   Overcast
8:44 AM 75.2 °F - 71.6 °F 89% 30.01 in 10.0 mi North 10.4 mph - 0.01 in   Overcast
8:54 AM 75.9 °F - 71.1 °F 85% 30.03 in 10.0 mi North 8.1 mph - 0.01 in   Overcast
9:54 AM 77.0 °F - 70.0 °F 79% 30.03 in 10.0 mi NNW 9.2 mph - N/A   Mostly Cloudy
10:54 AM 80.1 °F 83.6 °F 71.1 °F 74% 30.02 in 10.0 mi NNE 11.5 mph - 0.00 in   Mostly Cloudy
11:54 AM 81.0 °F 84.4 °F 70.0 °F 69% 30.00 in 10.0 mi North 12.7 mph - N/A   Scattered Clouds
12:54 PM 84.0 °F 86.5 °F 66.9 °F 56% 29.98 in 10.0 mi NE 15.0 mph 19.6 mph N/A   Mostly Cloudy
1:54 PM 84.9 °F 86.6 °F 64.9 °F 51% 29.95 in 10.0 mi ENE 13.8 mph - N/A   Mostly Cloudy
2:54 PM 82.9 °F 85.4 °F 66.9 °F 58% 29.93 in 10.0 mi NNE 21.9 mph - N/A   Scattered Clouds
3:54 PM 82.9 °F 85.8 °F 68.0 °F 60% 29.94 in 10.0 mi North 16.1 mph - N/A   Scattered Clouds
4:54 PM 81.0 °F 84.4 °F 70.0 °F 69% 29.95 in 10.0 mi NNE 20.7 mph - N/A   Scattered Clouds
5:54 PM 77.0 °F - 66.9 °F 71% 29.96 in 10.0 mi NE 9.2 mph - N/A   Partly Cloudy
6:54 PM 75.0 °F - 64.9 °F 71% 29.98 in 10.0 mi NE 8.1 mph - N/A   Partly Cloudy
7:54 PM 73.9 °F - 66.0 °F 76% 30.00 in 10.0 mi ENE 5.8 mph - N/A   Clear
8:54 PM 75.0 °F - 66.0 °F 73% 30.00 in 10.0 mi NNE 9.2 mph - N/A   Clear
9:54 PM 75.9 °F - 68.0 °F 76% 30.01 in 10.0 mi North 10.4 mph - N/A   Clear
10:54 PM 73.0 °F - 66.0 °F 79% 30.01 in 10.0 mi NNW 4.6 mph - N/A   Clear
11:54 PM 73.0 °F - 66.9 °F 81% 30.01 in 10.0 mi Calm Calm - N/A   Partly Cloudy